Starlink 11722

operational
NORAD ID: 64128 Int'l Des: 2025-111 Owner: SPXS Country: US Constellation: starlink
LEOCIRCULAR

About Starlink 11722

Description loading...

Live Position

Loading 3D Globe...

Upcoming Passes

Altitude History

Altitude vs Time

uPlot chart will show altitude changes over time

Two-Line Element Set

1 64128U 25111F 25260.57784016 .00200039 00000-0 15202-2 0 9990
2 64128 42.9987 297.2638 0001400 278.7118 81.3591 15.70918229 19368
Epoch: Sep 17, 2025 • Age: 35 hours

Current Status

Altitude 366.9 km
Velocity 7.69 km/s
Sub-Earth Point -42.64°S, 178.65°W
Launch Date May 24, 2025
Age 0.3 years
Type internet

Technical Details

Classification Payload
Mass 960.00 kg
Dry Mass 910.00 kg
Total Mass 960.00 kg
Length 0.30 m
Diameter 4.10 m
Span 29.00 m
Shape Box + pan
Manufacturer SPXS
Bus Type Starlink V2MD
Phase Status In Orbit
Owner/State SPXS/US

Large Constellations

Loading constellations...